Effective Sunday, March 17, 2024, the National Weather Service National Data Buoy Center will discontinue its Dial-A-Buoy Interactive Voice Response system. For more information, see Service Change Notice 24-06 (PDF).

Station SISW1 - Smith Island, WA Image indicating link to RSS feed of recent meteorological observations for station SISW1


Conditions at SISW1 as of
(11:30 pm PST on 03/01/2024)
0730 GMT on 03/02/2024:
     

Click on the graph icon in the table below to see a time series plot of the last five days of that observation.

5-day plot - Wind Direction Wind Direction (WDIR): E ( 80 deg true )
5-day plot - Wind Speed Wind Speed (WSPD): 14 kts
5-day plot - Wind Gust Wind Gust (GST): 16 kts
5-day plot - Atmospheric Pressure Atmospheric Pressure (PRES):29.29 in
5-day plot - Air Temperature Air Temperature (ATMP): 41.2 °F
5-day plot - Dew Point Dew Point (DEWP): 37.8 °F
5-day plot - Wind Chill Wind Chill (CHILL): 33.1 °F
5-day plot - Wind Speed at 10 Meters Wind Speed at 10 meters (WSPD10M): 14 kts
5-day plot - Wind Speed at 20 Meters Wind Speed at 20 meters (WSPD20M): 14 kts
5-day plot -  Wind Speed, Wind Gust and Atmospheric Pressure Combined plot of Wind Speed, Gust, and Air Pressure
Supplemental Measurements
Highest 1-minute Wind Speed
Time (PST)5-day plot - 1-Minute Wind Speed WSPD 5-day plot - 1-Minute Wind Direction WDIR
11:28 pm 16 kts-
Previous observations
TIME
(PST)
5-day plot - Wind Direction
WDIR
 
5-day plot - Wind Speed
WSPD
kts
5-day plot - Wind Gust
GST
kts
5-day plot - Wave Height
WVHT
ft
5-day plot - Dominant Wave Period
DPD
sec
5-day plot - Average Wave Period
APD
sec
5-day plot - Mean Wave Direction
MWD
 
5-day plot - Atmospheric Pressure
PRES
in
5-day plot - Pressure Tendency
PTDY
in
5-day plot - Air Temperature
ATMP
°F
5-day plot - Water Temperature
WTMP
°F
5-day plot - Dew Point
DEWP
°F
5-day plot - Salinity
SAL
psu
5-day plot - Visibility
VIS
nmi
5-day plot - Tide (above MLLW)
TIDE
ft
2024-03-01 11:20 pm E 14 17----29.31- 41.2- 37.2---
2024-03-01 11:10 pm E 12 14----29.31- 41.4- 37.2---
2024-03-01 11:00 pm E 10 12----29.30-0.07 41.4- 37.2---
2024-03-01 10:50 pmENE 7 9----29.31- 41.2- 37.0---
2024-03-01 10:40 pm E 7 9------------
2024-03-01 10:30 pm E 7 9----29.31- 41.4- 37.9---
2024-03-01 10:20 pm E 8 9----29.32- 41.4- 37.6---
2024-03-01 10:10 pmESE 8 10----29.32- 41.5- 37.8---
2024-03-01 10:00 pm SE 9 11----29.33-0.07 41.7- 38.5---
2024-03-01 09:50 pm SE 9 12----29.32- 42.1- 38.7---
2024-03-01 09:40 pm SE 9 11----29.33- 41.7- 38.7---
2024-03-01 09:30 pm SE 11 14----29.34- 41.2- 38.7---
2024-03-01 09:20 pm SE 12 14----29.34- 41.2- 39.0---
2024-03-01 09:10 pm SE 12 15----29.35- 40.8- 39.0---
2024-03-01 09:00 pm SE 11 13----29.36-0.06 40.6- 39.4---
2024-03-01 08:50 pmESE 13 15----29.36- 40.5- 39.4---
2024-03-01 08:40 pmESE 15 17----29.36- 40.6- 39.7---
2024-03-01 08:30 pmESE 16 18----29.36- 40.8- 39.6---
2024-03-01 08:20 pmESE 19 22----29.36- 41.2- 39.7---
2024-03-01 08:10 pm SE 18 20----29.37- 41.0- 39.7---
2024-03-01 08:00 pm SE 19 23----29.37-0.06 41.0- 39.7---
2024-03-01 07:50 pm SE 21 24----29.37- 41.2- 39.7---
2024-03-01 07:40 pm SE 19 23----29.38- 41.0- 39.2---
2024-03-01 07:30 pm SE 19 22----29.39- 40.8- 38.8---
2024-03-01 07:20 pm SE 17 20----29.39- 40.8- 38.5---
2024-03-01 07:10 pm SE 16 19----29.39- 40.8- 38.3---
2024-03-01 07:00 pm SE 17 21----29.40-0.04 41.0- 38.5---
2024-03-01 06:50 pmSSE 18 21----29.39- 41.2- 38.7---
2024-03-01 06:40 pmSSE 17 21----29.40- 41.4- 38.7---
2024-03-01 06:30 pm S 19 22----29.41- 41.4- 38.3---
2024-03-01 06:20 pm S 19 25----29.41- 41.4- 38.3---
2024-03-01 06:10 pm S 22 26----29.41- 41.5- 38.7---
2024-03-01 06:00 pm S 20 24----29.42-0.02 41.5- 38.5---
2024-03-01 05:50 pm S 21 27----29.42- 41.7- 38.7---
2024-03-01 05:40 pm S 22 26----29.43- 41.9- 39.0---
2024-03-01 05:30 pm S 20 24----29.43- 42.3- 39.0---
2024-03-01 05:20 pm S 19 24----29.43- 42.4- 38.8---
2024-03-01 05:10 pm S 20 23----29.44- 42.3- 38.8---
2024-03-01 05:00 pm S 20 25----29.43+0.00 42.3- 39.0---
2024-03-01 04:50 pm S 19 24----29.43- 42.4- 39.2---
2024-03-01 04:40 pm S 20 23----29.43- 42.3- 39.0---
2024-03-01 04:30 pm S 19 22----29.43- 42.1- 39.2---
2024-03-01 04:20 pm S 19 22----29.44- 42.1- 39.4---
2024-03-01 04:10 pm S 21 25----29.44- 41.7- 39.4---
2024-03-01 04:00 pm S 22 25----29.43+0.00 41.5- 39.6---
2024-03-01 03:50 pm S 21 25----29.44- 41.2- 39.7---
2024-03-01 03:40 pm S 22 27----29.44- 41.0- 40.1---
2024-03-01 03:30 pm S 25 30----29.43- 40.6- 39.9---
2024-03-01 03:20 pm S 25 30----29.43- 40.3- 39.6---
2024-03-01 03:10 pm S 27 34----29.44- 40.3- 39.6---
2024-03-01 03:00 pm S 28 33----29.44+0.00 40.1- 39.0---
2024-03-01 02:50 pm S 28 36----29.43- 40.1- 39.2---
2024-03-01 02:40 pm S 29 34----29.43- 39.9- 39.2---
2024-03-01 02:30 pm S 28 33----29.42- 39.7- 39.2---
2024-03-01 02:20 pm S 27 33----29.42- 39.9- 39.4---
2024-03-01 02:10 pmSSE 23 28----29.43- 39.2- 38.8---
2024-03-01 02:00 pmSSE 25 29----29.43-0.01 39.0- 38.7---
2024-03-01 01:50 pmSSE 24 28----29.43- 39.2- 39.0---
2024-03-01 01:40 pm S 27 31----29.43- 39.6- 39.2---
2024-03-01 01:30 pm S 29 35----29.42- 40.3- 39.4---
2024-03-01 01:20 pm S 29 33----29.41- 40.3- 39.2---
2024-03-01 01:10 pm S 27 33----29.42- 40.6- 39.4---
2024-03-01 01:00 pm S 25 32----29.43+0.00 41.2- 39.4---
2024-03-01 12:50 pm S 27 32----29.42- 41.4- 39.2---
2024-03-01 12:40 pm S 27 32----29.42- 41.9- 38.7---
2024-03-01 12:20 pm S 27 32----29.43- 41.9- 38.8---
2024-03-01 12:10 pm S 26 31----29.43- 42.1- 39.2---
2024-03-01 12:00 pm S 25 30------------
2024-03-01 11:50 am S 24 27----29.44- 42.1- 38.5---
2024-03-01 11:40 am S 26 33----29.44- 42.1- 38.7---
2024-03-01 11:30 am S 27 32----29.44- 41.7- 38.5---
2024-03-01 11:20 am S 27 32----29.44- 41.7- 38.7---
2024-03-01 11:10 am S 27 32----29.44- 41.5- 38.7---
2024-03-01 11:00 am S 27 33----29.44+0.00 41.5- 39.2---
2024-03-01 10:50 am S 28 33----29.44- 41.5- 39.2---
2024-03-01 10:40 am S 29 36----29.44- 41.5- 39.2---
2024-03-01 10:30 am S 28 33----29.43- 41.4- 38.8---
2024-03-01 10:20 am S 26 33----29.44- 41.2- 39.0---
2024-03-01 10:10 am S 29 36----29.44- 41.0- 38.5---
2024-03-01 10:00 am S 30 35----29.42-0.02 41.0- 38.3---
2024-03-01 09:50 am S 30 35----29.42- 40.6- 38.5---
2024-03-01 09:40 am S 32 38----29.42- 40.5- 38.5---
2024-03-01 09:30 am S 31 37----29.42- 40.6- 39.0---
2024-03-01 09:20 am S 31 37----29.42- 40.3- 38.5---
2024-03-01 09:10 am S 30 35----29.43- 40.1- 38.5---
2024-03-01 09:00 am S 30 38----29.43+0.00 39.9- 38.3---
2024-03-01 08:50 am S 32 40----29.44- 39.7- 38.1---
2024-03-01 08:40 am S 33 40----29.44- 39.6- 38.5---
2024-03-01 08:30 am S 34 41----29.43- 39.6- 38.5---
2024-03-01 08:20 am S 31 39----29.42- 39.4- 38.5---
2024-03-01 08:10 am S 30 38----29.43- 39.6- 38.5---
2024-03-01 08:00 am S 29 36----29.43-0.01 39.2- 37.9---
2024-03-01 07:50 am S 30 35----29.44- 39.6- 38.3---
2024-03-01 07:40 am S 29 34----29.44- 39.7- 38.7---
2024-03-01 07:30 am S 29 35----29.44- 39.7- 38.5---
2024-03-01 07:20 am S 27 33----29.44- 39.9- 39.0---
2024-03-01 07:10 am S 27 32----29.44- 39.7- 38.8---
2024-03-01 07:00 am S 28 34----29.44+0.00 39.4- 38.7---
2024-03-01 06:50 am S 31 37----29.44- 39.6- 38.8---
2024-03-01 06:40 am S 28 32----29.44- 39.7- 38.7---
2024-03-01 06:30 am S 29 34----29.45- 39.9- 38.5---
2024-03-01 06:20 am S 28 34----29.44- 40.3- 38.8---
2024-03-01 06:10 am S 30 36----29.44- 40.1- 38.8---
2024-03-01 06:00 am S 30 37----29.44+0.01 40.3- 38.8---
2024-03-01 05:50 am S 30 37----29.43- 40.3- 38.8---
2024-03-01 05:40 am S 29 35----29.44- 40.5- 39.2---
2024-03-01 05:30 am S 30 36----29.44- 40.3- 38.8---
2024-03-01 05:20 am S 27 32----29.44- 40.3- 38.8---
2024-03-01 05:10 am S 29 34----29.44- 40.5- 39.2---
2024-03-01 05:00 am S 27 33----29.44+0.02 40.3- 39.0---
2024-03-01 04:50 am S 27 33----29.45- 40.1- 38.8---
2024-03-01 04:40 am S 27 31----29.44- 40.3- 38.8---
2024-03-01 04:30 am S 27 33----29.44- 40.1- 38.7---
2024-03-01 04:20 am S 26 30----29.44- 39.7- 38.5---
2024-03-01 04:10 am S 25 31----29.45- 39.6- 38.5---
2024-03-01 04:00 am S 26 29----29.45+0.05 39.4- 38.3---
2024-03-01 03:50 am S 27 32----29.44- 39.4- 38.5---
2024-03-01 03:40 am S 25 30----29.44- 39.4- 38.7---
2024-03-01 03:30 am S 27 32----29.44- 39.2- 38.8---
2024-03-01 03:20 am S 26 31----29.44- 39.2- 38.7---
2024-03-01 03:10 am S 24 30----29.43- 38.8- 38.1---
2024-03-01 03:00 am S 22 28----29.43+0.03 39.0- 38.1---
2024-03-01 02:50 am S 25 30----29.44- 39.2- 38.3---
2024-03-01 02:40 am S 25 30----29.44- 39.6- 38.7---
2024-03-01 02:30 am S 29 33----29.43- 39.7- 38.7---
2024-03-01 02:20 am S 29 35----29.44- 40.1- 39.0---
2024-03-01 02:10 am S 30 35----29.44- 40.1- 39.0---
2024-03-01 02:00 am S 31 38----29.43+0.03 40.5- 39.2---
2024-03-01 01:50 am S 31 36----29.42- 40.3- 39.2---
2024-03-01 01:40 am S 31 37----29.41- 40.1- 39.0---
2024-03-01 01:30 am S 32 40----29.41- 40.3- 39.4---
2024-03-01 01:20 am S 31 40----29.41- 40.3- 39.4---
2024-03-01 01:10 am S 32 38----29.41- 40.5- 39.4---
2024-03-01 01:00 am S 31 39----29.40+0.00 40.6- 39.7---
2024-03-01 12:50 am S 30 34----29.41- 40.6- 39.7---
2024-03-01 12:40 am S 29 34----29.40- 40.8- 39.6---
2024-03-01 12:30 am S 33 40----29.39- 41.0- 39.6---
2024-03-01 12:20 am S 31 38----29.39- 41.2- 39.7---
2024-03-01 12:10 am S 31 37----29.40- 41.0- 39.6---
2024-03-01 12:00 am S 30 37----29.40-0.01 41.2- 39.7---
2024-02-29 11:50 pm S 29 36----29.40- 40.8- 39.4---
2024-02-29 11:40 pm S 31 36----29.40- 40.8- 39.4---
2024-02-29 11:30 pm S 31 37----29.40- 40.8- 39.4---
2024-02-29 11:20 pm S 30 39----29.39- 40.6- 39.4---
2024-02-29 11:10 pm S 31 39----29.39- 40.5- 39.2---
2024-02-29 11:00 pm S 32 40----29.39-0.02 40.1- 39.4---
2024-02-29 10:50 pm S 31 38----29.39- 40.1- 39.6---